{"data":{"norad_id":58596,"intl_designator":"2023-200H","name":"STARLINK-31059","alt_names":[],"object_type":"PAYLOAD","status":"ACTIVE","operator":null,"country":"US","launch_date":"2023-12-19","launch_site_code":"AFETR","launch_vehicle":null,"mission":null,"orbit_class":"UNKNOWN","rcs_meters":null,"size_class":null,"mass_kg":null,"dimensions":null,"purposes":["comms"],"wikipedia_slug":null,"has_3d_model":false,"image_url":null,"decayed_at":null,"tle_current":{"epoch":"2026-09-20T05:33:08.167392Z","epoch_age_seconds":172899,"freshness":"STALE","line1":"1 58596U 23200H   26263.23134453 -.00000222  00000+0  14730-5 0  9990","line2":"2 58596  43.0031 353.4609 0001288 238.7827 121.2898 15.27574972155205","mean_motion":15.27574972,"eccentricity":0.0001288,"inclination_deg":43.0031,"raan_deg":353.4609,"arg_perigee_deg":238.7827,"mean_anomaly_deg":121.2898,"bstar":1.473e-6,"rev_number":15520,"period_min":94.267058991852,"perigee_km":482.18042901342,"apogee_km":483.9478744301,"semimajor_km":6861.2011517218,"source":"CELESTRAK","updated_at":"2026-09-21T09:00:33.918260Z"}}}